This demonstration page uses our WeatherBlox Daily Observations layout. Learn more.

39.51506, -84.39828

Hourly Observations for January 20, 2020

Temp ( °F °C ) Dew Point ( °F °C ) Humidity (%) Winds ( mph kmh ) Pressure ( in mb ) Visibility ( mi km ) Precip ( " mm )
12:15 am 00:15 Cloudy with Light Snow 16 -8.9 10 -12.3 77 77 W 6 9 30.52 1034 10 16.0934 0 0
12:35 am 00:35 Cloudy with Light Snow 16 -8.9 10 -12.3 77 77 W 7 11 30.52 1034 10 16.0934 0 0
12:55 am 00:55 Cloudy with Light Snow 16 -8.9 10 -12.3 77 77 WNW 6 9 30.52 1034 10 16.0934 0 0
1:15 am 01:15 Cloudy with Light Snow 16 -8.8 10 -12.1 77 77 WNW 8 13 30.52 1034 10 16.0934 0 0
1:35 am 01:35 Cloudy with Light Snow 16 -8.9 10 -12.1 78 78 WNW 7 11 30.52 1034 10 16.0934 0 0
1:55 am 01:55 Cloudy with Light Snow 16 -8.9 10 -12 78 78 W 7 11 30.52 1034 10 16.0934 0 0
2:15 am 02:15 Cloudy with Light Snow 16 -8.9 10 -12 78 78 WNW 6 9 30.53 1034 10 16.0934 0 0
2:35 am 02:35 Cloudy with Light Snow 16 -8.9 10 -12.1 78 78 WNW 3 6 30.54 1034 10 16.0934 0 0
2:55 am 02:55 Cloudy 16 -8.8 11 -11.8 79 79 NNW 6 9 30.54 1034 10 16.0934 0 0
3:15 am 03:15 Cloudy with Light Snow 16 -8.9 11 -11.9 79 79 NW 6 9 30.54 1034 10 16.0934 0 0
3:35 am 03:35 Cloudy with Light Snow 16 -8.9 11 -11.9 79 79 WNW 6 9 30.54 1034 10 16.0934 0 0
3:55 am 03:55 Cloudy with Light Snow 16 -8.8 11 -11.7 80 80 NW 6 9 30.54 1034 10 16.0934 0 0
4:15 am 04:15 Cloudy with Light Snow 16 -8.7 11 -11.6 80 80 NW 7 11 30.54 1034 10 16.0934 0 0
4:35 am 04:35 Cloudy with Light Snow 17 -8.6 11 -11.4 80 80 WNW 7 11 30.54 1034 10 16.0934 0 0
4:55 am 04:55 Cloudy with Light Snow 16 -8.7 11 -11.5 80 80 WNW 5 7 30.55 1035 10 16.0934 0 0
5:15 am 05:15 Cloudy with Light Snow 17 -8.6 11 -11.4 80 80 NW 5 7 30.55 1035 10 16.0934 0 0
5:35 am 05:35 Cloudy with Light Snow 17 -8.5 12 -11.3 80 80 NW 5 7 30.56 1035 10 16.0934 0 0
5:55 am 05:55 Cloudy with Light Snow 17 -8.5 12 -11.3 80 80 NNW 6 9 30.56 1035 10 16.0934 0 0
6:15 am 06:15 Cloudy with Light Snow 17 -8.3 12 -11 81 81 Calm 30.57 1035 10 16.0934 0 0
6:35 am 06:35 Cloudy with Light Snow 17 -8.4 12 -11.2 80 80 Calm 30.57 1035 10 16.0934 0 0
6:55 am 06:55 Cloudy 17 -8.2 12 -10.9 81 81 NW 3 6 30.58 1036 10 16.0934 0 0
7:15 am 07:15 Cloudy with Light Snow 17 -8.1 12 -11.1 79 79 Calm 30.6 1036 10 16.0934 0 0
7:35 am 07:35 Cloudy with Light Snow 17 -8.1 12 -11.2 79 79 NNE 5 7 30.6 1036 10 16.0934 0 0
7:55 am 07:55 Cloudy 17 -8.4 12 -11.3 80 80 NNE 5 7 30.61 1037 10 16.0934 0 0
8:15 am 08:15 Cloudy 17 -8.2 12 -11.1 80 80 Calm 30.61 1037 10 16.0934 0 0
8:35 am 08:35 Cloudy 17 -8.1 12 -11.1 79 79 N 5 7 30.62 1037 10 16.0934 0 0
8:55 am 08:55 Mostly Cloudy 17 -8.4 12 -10.9 82 82 NNW 7 11 30.63 1037 10 16.0934 0 0
9:15 am 09:15 Partly Cloudy 17 -8.5 12 -11.2 81 81 NNW 7 11 30.64 1038 10 16.0934 0 0
9:35 am 09:35 Partly Cloudy 17 -8.1 12 -11 80 80 NW 6 9 30.64 1038 10 16.0934 0 0
9:55 am 09:55 Mostly Cloudy 18 -7.9 12 -11.1 78 78 NW 7 11 30.65 1038 10 16.0934 0 0
10:15 am 10:15 Mostly Cloudy 19 -7.5 12 -11 76 76 WNW 6 9 30.65 1038 10 16.0934 0 0
10:35 am 10:35 Mostly Cloudy 19 -7 13 -10.7 75 75 NNW 6 9 30.66 1038 10 16.0934 0 0
10:55 am 10:55 Cloudy 20 -6.7 13 -10.3 76 76 W 8 13 30.65 1038 10 16.0934 0 0
11:15 am 11:15 Partly Cloudy 20 -6.6 14 -10.2 76 76 NNW 5 7 30.65 1038 10 16.0934 0 0
11:35 am 11:35 Partly Cloudy 21 -5.9 14 -10 73 73 NNW 3 6 30.65 1038 10 16.0934 0 0
11:55 am 11:55 Partly Cloudy 22 -5.3 15 -9.6 72 72 NW 5 7 30.65 1038 10 16.0934 0 0
12:15 pm 12:15 Partly Cloudy 23 -5.2 14 -10 69 69 W 3 6 30.64 1038 10 16.0934 0 0
12:35 pm 12:35 Mostly Cloudy 24 -4.6 14 -9.8 67 67 WNW 7 11 30.64 1038 10 16.0934 0 0
12:55 pm 12:55 Sunny 25 -3.7 15 -9.6 64 64 W 3 6 30.63 1037 10 16.0934 0 0
1:15 pm 13:15 Partly Cloudy 24 -4.3 13 -10.7 61 61 Calm 30.62 1037 10 16.0934 0 0
1:35 pm 13:35 Mostly Cloudy 25 -3.9 13 -10.3 61 61 NW 6 9 30.61 1036 10 16.0934 0 0
1:55 pm 13:55 Cloudy 26 -3.3 13 -10.4 58 58 W 3 6 30.61 1036 10 16.0934 0 0
2:15 pm 14:15 Cloudy 28 -2.5 14 -9.8 58 58 N 5 7 30.6 1036 10 16.0934 0 0
2:35 pm 14:35 Cloudy 26 -3.4 13 -10.3 59 59 NW 6 9 30.6 1036 10 16.0934 0 0
2:55 pm 14:55 Cloudy 28 -2.5 14 -10.2 56 56 Calm 30.58 1036 10 16.0934 0 0
3:15 pm 15:15 Cloudy 28 -2.2 14 -10.1 55 55 NNE 6 9 30.58 1036 10 16.0934 0 0
3:35 pm 15:35 Mostly Cloudy 27 -3 14 -10.2 58 58 Calm 30.58 1036 10 16.0934 0 0
3:55 pm 15:55 Cloudy 27 -2.8 14 -10 58 58 Calm 30.58 1036 10 16.0934 0 0
4:15 pm 16:15 Cloudy 27 -2.9 14 -9.9 59 59 N 7 11 30.58 1036 10 16.0934 0 0
4:35 pm 16:35 Cloudy 26 -3.1 14 -10 59 59 Calm 30.59 1036 10 16.0934 0 0
4:55 pm 16:55 Cloudy 27 -3 14 -9.9 59 59 Calm 30.59 1036 10 16.0934 0 0
5:15 pm 17:15 Cloudy 26 -3.2 15 -9.7 61 61 N 3 6 30.59 1036 10 16.0934 0 0
5:35 pm 17:35 Partly Cloudy 25 -3.7 14 -10 62 62 N 6 9 30.6 1036 10 16.0934 0 0
5:55 pm 17:55 Mostly Cloudy 25 -3.7 14 -10 62 62 Calm 30.6 1036 10 16.0934 0 0
6:15 pm 18:15 Partly Cloudy 24 -4.2 14 -10.1 64 64 N 3 6 30.61 1036 10 16.0934 0 0
6:35 pm 18:35 Cloudy 24 -4.4 15 -9.7 67 67 N 5 7 30.62 1037 10 16.0934 0 0
6:55 pm 18:55 Partly Cloudy 24 -4.6 14 -9.9 67 67 N 5 7 30.62 1037 10 16.0934 0 0
7:15 pm 19:15 Clear 23 -5 14 -9.9 69 69 N 6 9 30.62 1037 10 16.0934 0 0
7:35 pm 19:35 Clear 22 -5.3 15 -9.7 72 72 N 5 7 30.63 1037 10 16.0934 0 0
7:55 pm 19:55 Clear 22 -5.5 15 -9.6 73 73 N 3 6 30.63 1037 10 16.0934 0 0
8:15 pm 20:15 Cloudy 23 -4.8 15 -9.3 71 71 Calm 30.63 1037 10 16.0934 0 0
8:35 pm 20:35 Cloudy 24 -4.4 15 -9.3 69 69 N 6 9 30.63 1037 10 16.0934 0 0
8:55 pm 20:55 Cloudy 24 -4.2 15 -9.5 67 67 NNE 6 9 30.63 1037 10 16.0934 0 0
9:15 pm 21:15 Cloudy 24 -4.2 15 -9.4 67 67 NNE 6 9 30.63 1037 10 16.0934 0 0
9:35 pm 21:35 Cloudy 25 -4.1 16 -9 69 69 NE 6 9 30.63 1037 10 16.0934 0 0
9:55 pm 21:55 Cloudy 25 -4.1 16 -9.1 69 69 NNE 5 7 30.63 1037 10 16.0934 0 0
10:15 pm 22:15 Cloudy 25 -4.1 16 -8.9 70 70 ENE 7 11 30.63 1037 10 16.0934 0 0
10:35 pm 22:35 Cloudy 25 -4.1 16 -9.1 69 69 ENE 7 11 30.64 1037 10 16.0934 0 0
10:55 pm 22:55 Cloudy 25 -4.1 16 -9.1 69 69 NE 8 13 30.64 1037 10 16.0934 0 0
11:15 pm 23:15 Cloudy 25 -4.1 15 -9.5 66 66 NE 8 13 30.64 1037 10 16.0934 0 0
11:35 pm 23:35 Cloudy 25 -4.1 15 -9.5 66 66 NE 7 11 30.64 1037 10 16.0934 0 0
11:55 pm 23:55 Cloudy 25 -4.1 15 -9.4 67 67 NE 7 11 30.64 1037 10 16.0934 0 0

Powered by AerisWeather